Flood From: 24-02-2018 06:00 Until: 25-02-2018 06:00 warning for: Flood Level: Yellow info button

Although rather usual in this region, locally or potentially dangerous phenomena are expected. (such as local winds, summer thunderstorms, rising streams or high waves) Be aware and pay attention to the latest weather updates, especially if you carry out activities exposed to weather or close to a stream or shoreline. 


Meteo18 Weather Cam more information Meteo18 Weather Cam


Thunder radar more information blitzortung!


Rain radar more information rain snow radar


Visit our other weather sites:

Template documentation
and downloads

And another site



Weather Underground History page Text

Daily Summary for January 26, 2017 Units:  Metric    English   Both
« Previous Day
Next Day »
Daily Weekly Monthly Yearly Custom
  High: Low: Average:
Temperature: -17.8 °C -22.2 °C -18.6 °C
Dew Point: -17.8 °C -22.8 °C -20.4 °C
Humidity: Humidity % 57 % 79 %
Wind Speed: 0 km/h 0 km/h 5.6 km/h
Wind Gust: 0 km/h - -
Wind:- - East
Pressure: 0 hPa 34384.8 hPa -
Precipitation: 7.62 mm    
Historical Graphs
 
 
Tabular Data for January 26, 2017
Time Temperature Dew Point Pressure Wind Wind Speed Wind Gust Humidity Rainfall Rate (Hourly)
-17.8 °C -17.8 °C 0 hPa Calm     Humidity % 0 mm
00:02 -20.6 °C -21.7 °C 34703.1 hPa Calm   7.7 km/h 85 % 0 mm
00:12 -20.6 °C -21.8 °C 34703.1 hPa Calm   7.7 km/h 85 % 0 mm
00:17 -20.7 °C -21.8 °C 34703.1 hPa Calm   2.6 km/h 86 % 0 mm
00:22 -20.7 °C -21.8 °C 34703.1 hPa Calm   2.6 km/h 86 % 0 mm
00:27 -20.7 °C -21.8 °C 34693 hPa Calm   2.6 km/h 86 % 0 mm
00:32 -20.7 °C -21.8 °C 34693 hPa Calm   2.6 km/h 86 % 0 mm
00:37 -20.8 °C -21.8 °C 34693 hPa Calm   2.6 km/h 87 % 0 mm
00:42 -20.8 °C -21.8 °C 34693 hPa ENE 2.6 km/h 2.6 km/h 87 % 0 mm
00:52 -20.7 °C -21.8 °C 34703.1 hPa ENE 2.6 km/h 2.6 km/h 86 % 0 mm
00:57 -20.7 °C -21.8 °C 34703.1 hPa NE 2.6 km/h 7.7 km/h 86 % 0 mm
01:02 -20.8 °C -21.9 °C 34703.1 hPa ENE 7.7 km/h 7.7 km/h 86 % 0 mm
01:12 -20.9 °C -21.9 °C 34703.1 hPa Calm   10.3 km/h 87 % 0 mm
01:17 -20.9 °C -21.9 °C 34703.1 hPa NNE 5.1 km/h 10.3 km/h 87 % 0 mm
01:22 -20.9 °C -21.9 °C 34703.1 hPa Calm   10.3 km/h 87 % 0 mm
01:27 -20.9 °C -21.9 °C 34703.1 hPa Calm   7.7 km/h 87 % 0 mm
01:32 -21 °C -22 °C 34703.1 hPa Calm   7.7 km/h 87 % 0 mm
01:37 -21 °C -21.9 °C 34693 hPa Calm   5.1 km/h 88 % 0 mm
01:42 -21 °C -21.9 °C 34693 hPa ENE 2.6 km/h 5.1 km/h 88 % 0 mm
01:47 -21.1 °C -22 °C 34693 hPa ENE 5.1 km/h 5.1 km/h 88 % 0 mm
01:52 -21 °C -21.9 °C 34693 hPa East 5.1 km/h 5.1 km/h 88 % 0 mm
01:57 -21.1 °C -22.1 °C 34693 hPa East 5.1 km/h 10.3 km/h 87 % 0 mm
02:02 -21.1 °C -22.1 °C 34693 hPa ENE 2.6 km/h 10.3 km/h 88 % 0 mm
02:12 -21.1 °C -22 °C 34693 hPa Calm   10.3 km/h 88 % 0 mm
02:17 -21.1 °C -22.1 °C 34682.8 hPa ENE 5.1 km/h 7.7 km/h 88 % 0 mm
02:22 -21.2 °C -22.1 °C 34682.8 hPa ENE 2.6 km/h 7.7 km/h 88 % 0 mm
02:32 -21.2 °C -22.1 °C 34682.8 hPa Calm   7.7 km/h 88 % 0 mm
02:37 -21.2 °C -22.1 °C 34669.3 hPa NE 2.6 km/h 7.7 km/h 88 % 0 mm
02:42 -21.2 °C -22 °C 34669.3 hPa Calm   7.7 km/h 89 % 0 mm
02:47 -21.2 °C -22 °C 34669.3 hPa Calm   5.1 km/h 89 % 0 mm
02:52 -21.2 °C -22.1 °C 34669.3 hPa Calm   5.1 km/h 88 % 0 mm
02:57 -21.2 °C -22.1 °C 34669.3 hPa Calm   5.1 km/h 88 % 0 mm
03:02 -21.3 °C -22.2 °C 34669.3 hPa Calm   2.6 km/h 88 % 0 mm
03:12 -21.4 °C -22.2 °C 34659.1 hPa Calm   2.6 km/h 89 % 0 mm
03:17 -21.4 °C -22.3 °C 34659.1 hPa Calm   2.6 km/h 89 % 0 mm
03:22 -21.4 °C -22.3 °C 34659.1 hPa Calm   2.6 km/h 89 % 0 mm
03:27 -21.4 °C -22.3 °C 34659.1 hPa Calm   2.6 km/h 89 % 0 mm
03:32 -21.3 °C -22.2 °C 34659.1 hPa NNE 2.6 km/h 2.6 km/h 89 % 0 mm
03:37 -21.3 °C -22.2 °C 34659.1 hPa NE 2.6 km/h 2.6 km/h 89 % 0 mm
03:42 -21.3 °C -22.1 °C 34659.1 hPa NE 2.6 km/h 5.1 km/h 89 % 0 mm
03:47 -21.3 °C -22.1 °C 34659.1 hPa NE 7.7 km/h 7.7 km/h 89 % 0 mm
03:52 -21.2 °C -22.1 °C 34659.1 hPa NE 2.6 km/h 5.1 km/h 89 % 0 mm
03:57 -21.3 °C -22.1 °C 34645.6 hPa NNE 5.1 km/h 7.7 km/h 89 % 0 mm
04:02 -21.3 °C -22.2 °C 34645.6 hPa NE 2.6 km/h 7.7 km/h 88 % 0 mm
04:12 -21.4 °C -22.3 °C 34645.6 hPa Calm   7.7 km/h 89 % 0 mm
04:17 -21.5 °C -22.3 °C 34645.6 hPa Calm   5.1 km/h 89 % 0 mm
04:22 -21.5 °C -22.3 °C 34645.6 hPa NE 2.6 km/h 5.1 km/h 90 % 0 mm
04:27 -21.4 °C -22.2 °C 34645.6 hPa NE 5.1 km/h 5.1 km/h 90 % 0 mm
04:32 -21.4 °C -22.2 °C 34645.6 hPa NE 5.1 km/h 7.7 km/h 90 % 0 mm
04:37 -21.4 °C -22.3 °C 34645.6 hPa NE 5.1 km/h 10.3 km/h 89 % 0 mm
04:42 -21.5 °C -22.3 °C 34645.6 hPa NE 5.1 km/h 12.9 km/h 89 % 0 mm
04:47 -21.4 °C -22.2 °C 34645.6 hPa NE 5.1 km/h 12.9 km/h 90 % 0 mm
04:52 -21.4 °C -22.2 °C 34635.4 hPa NE 12.9 km/h 12.9 km/h 90 % 0 mm
04:57 -21.4 °C -22.2 °C 34635.4 hPa ENE 7.7 km/h 12.9 km/h 90 % 0 mm
05:02 -21.4 °C -22.2 °C 34635.4 hPa NE 5.1 km/h 12.9 km/h 90 % 0 mm
05:07 -21.4 °C -22.2 °C 34635.4 hPa NE 5.1 km/h 12.9 km/h 90 % 0 mm
05:12 -21.4 °C -22.2 °C 34635.4 hPa NE 12.9 km/h 12.9 km/h 90 % 0 mm
05:17 -21.4 °C -22.3 °C 34635.4 hPa NE 7.7 km/h 12.9 km/h 89 % 0 mm
05:22 -21.5 °C -22.3 °C 34635.4 hPa ENE 5.1 km/h 12.9 km/h 90 % 0 mm
05:27 -21.4 °C -22.2 °C 34625.2 hPa NE 7.7 km/h 12.9 km/h 90 % 0 mm
05:32 -21.5 °C -22.3 °C 34625.2 hPa NE 5.1 km/h 10.3 km/h 90 % 0 mm
05:37 -21.5 °C -22.3 °C 34625.2 hPa NE 7.7 km/h 10.3 km/h 90 % 0 mm
05:42 -21.5 °C -22.3 °C 34625.2 hPa NE 10.3 km/h 10.3 km/h 90 % 0 mm
05:47 -21.5 °C -22.3 °C 34625.2 hPa NE 12.9 km/h 12.9 km/h 90 % 0 mm
05:52 -21.5 °C -22.3 °C 34625.2 hPa NNE 10.3 km/h 12.9 km/h 90 % 0 mm
05:57 -21.4 °C -22.2 °C 34625.2 hPa NE 5.1 km/h 12.9 km/h 90 % 0 mm
06:02 -21.5 °C -22.3 °C 34625.2 hPa NE 2.6 km/h 15.6 km/h 90 % 0 mm
06:07 -21.5 °C -22.3 °C 34625.2 hPa NE 7.7 km/h 15.6 km/h 90 % 0 mm
06:12 -21.6 °C -22.3 °C 34625.2 hPa NNE 2.6 km/h 12.9 km/h 90 % 0 mm
06:17 -21.6 °C -22.3 °C 34625.2 hPa NNE 2.6 km/h 12.9 km/h 90 % 0 mm
06:22 -21.6 °C -22.4 °C 34625.2 hPa NNE 2.6 km/h 7.7 km/h 90 % 0 mm
06:32 -21.7 °C -22.5 °C 34625.2 hPa Calm   7.7 km/h 90 % 0 mm
06:42 -21.7 °C -22.4 °C 34625.2 hPa NNE 5.1 km/h 5.1 km/h 91 % 0 mm
06:47 -21.7 °C -22.5 °C 34625.2 hPa NNE 5.1 km/h 5.1 km/h 90 % 0 mm
06:52 -21.8 °C -22.4 °C 34611.7 hPa NNE 2.6 km/h 10.3 km/h 91 % 0 mm
07:02 -21.8 °C -22.4 °C 34611.7 hPa NNE 5.1 km/h 10.3 km/h 91 % 0 mm
07:07 -21.8 °C -22.4 °C 34611.7 hPa NNE 2.6 km/h 10.3 km/h 91 % 0 mm
07:17 -21.8 °C -22.5 °C 34611.7 hPa NNE 2.6 km/h 7.7 km/h 91 % 0 mm
07:22 -21.8 °C -22.5 °C 34611.7 hPa Calm   5.1 km/h 91 % 0 mm
07:27 -21.8 °C -22.5 °C 34611.7 hPa Calm   5.1 km/h 91 % 0 mm
07:32 -21.9 °C -22.6 °C 34611.7 hPa Calm   5.1 km/h 91 % 0 mm
07:37 -21.9 °C -22.6 °C 34611.7 hPa Calm   5.1 km/h 91 % 0 mm
07:42 -22 °C -22.7 °C 34611.7 hPa Calm     91 % 0 mm
07:47 -22 °C -22.7 °C 34611.7 hPa Calm     91 % 0 mm
07:52 -22.1 °C -22.7 °C 34611.7 hPa Calm     92 % 0 mm
07:57 -22.1 °C -22.7 °C 34611.7 hPa Calm     92 % 0 mm
08:02 -22 °C -22.6 °C 34611.7 hPa Calm   2.6 km/h 92 % 0 mm
08:07 -22 °C -22.6 °C 34611.7 hPa Calm   2.6 km/h 92 % 0 mm
08:12 -22.1 °C -22.7 °C 34611.7 hPa Calm   2.6 km/h 92 % 0 mm
08:17 -22.1 °C -22.7 °C 34611.7 hPa Calm   2.6 km/h 91 % 0 mm
08:22 -22.1 °C -22.7 °C 34611.7 hPa Calm   2.6 km/h 92 % 0 mm
08:27 -22.2 °C -22.8 °C 34611.7 hPa Calm   2.6 km/h 91 % 0 mm
08:32 -22.1 °C -22.7 °C 34611.7 hPa Calm   2.6 km/h 92 % 0 mm
08:37 -22.1 °C -22.7 °C 34611.7 hPa Calm   2.6 km/h 92 % 0 mm
08:42 -22 °C -22.6 °C 34611.7 hPa Calm   2.6 km/h 92 % 0 mm
08:47 -21.9 °C -22.5 °C 34611.7 hPa Calm   2.6 km/h 92 % 0 mm
08:52 -21.9 °C -22.6 °C 34601.5 hPa Calm   2.6 km/h 91 % 0 mm
08:57 -21.8 °C -22.4 °C 34601.5 hPa Calm   2.6 km/h 92 % 0 mm
09:02 -21.6 °C -22.3 °C 34601.5 hPa Calm   2.6 km/h 91 % 0 mm
09:07 -21.6 °C -22.2 °C 34601.5 hPa Calm   2.6 km/h 91 % 0 mm
09:12 -21.4 °C -22.2 °C 34601.5 hPa Calm     90 % 0 mm
09:17 -21.3 °C -22.1 °C 34601.5 hPa Calm     90 % 0 mm
09:22 -21.2 °C -22.1 °C 34601.5 hPa Calm     89 % 0 mm
09:27 -21.2 °C -22 °C 34601.5 hPa Calm     89 % 0 mm
09:32 -21 °C -21.8 °C 34601.5 hPa Calm     90 % 0 mm
09:37 -20.8 °C -21.6 °C 34611.7 hPa Calm     89 % 0 mm
09:42 -20.5 °C -21.5 °C 34611.7 hPa Calm   5.1 km/h 87 % 0 mm
09:47 -20.4 °C -21.6 °C 34611.7 hPa Calm   5.1 km/h 86 % 0 mm
09:52 -20.3 °C -21.5 °C 34601.5 hPa East 2.6 km/h 7.7 km/h 85 % 0 mm
09:57 -20.3 °C -21.4 °C 34601.5 hPa ENE 5.1 km/h 7.7 km/h 85 % 0 mm
10:02 -20.2 °C -21.4 °C 34601.5 hPa NE 2.6 km/h 12.9 km/h 85 % 0 mm
10:07 -20.1 °C -21.3 °C 34611.7 hPa Calm   12.9 km/h 85 % 0 mm
10:12 -20 °C -21.4 °C 34601.5 hPa Calm   12.9 km/h 83 % 0 mm
10:17 -19.9 °C -21.3 °C 34601.5 hPa ENE 5.1 km/h 12.9 km/h 83 % 0 mm
10:22 -20.1 °C -21.4 °C 34601.5 hPa Calm   12.9 km/h 83 % 0 mm
10:27 -19.9 °C -21.3 °C 34601.5 hPa Calm   12.9 km/h 83 % 0 mm
10:32 -19.8 °C -21.2 °C 34591.4 hPa Calm   15.6 km/h 83 % 0 mm
10:42 -19.8 °C -21.2 °C 34601.5 hPa Calm   7.7 km/h 83 % 0 mm
10:47 -19.7 °C -21.1 °C 34591.4 hPa ENE 2.6 km/h 7.7 km/h 83 % 0 mm
10:52 -19.6 °C -20.9 °C 34591.4 hPa Calm   7.7 km/h 83 % 0 mm
11:02 -19.2 °C -20.6 °C 34591.4 hPa Calm   7.7 km/h 83 % 0 mm
11:07 -18.8 °C -20.4 °C 34591.4 hPa ENE 7.7 km/h 7.7 km/h 81 % 0 mm
11:12 -19 °C -20.7 °C 34591.4 hPa ESE 2.6 km/h 12.9 km/h 80 % 0 mm
11:17 -19 °C -20.7 °C 34591.4 hPa East 7.7 km/h 12.9 km/h 79 % 0 mm
11:22 -18.9 °C -20.7 °C 34591.4 hPa SSE 7.7 km/h 12.9 km/h 79 % 0 mm
11:27 -18.8 °C -20.6 °C 34591.4 hPa East 7.7 km/h 12.9 km/h 79 % 0 mm
11:32 -18.7 °C -20.4 °C 34591.4 hPa Calm   12.9 km/h 79 % 0 mm
11:37 -18.6 °C -20.4 °C 34591.4 hPa ESE 7.7 km/h 12.9 km/h 78 % 0 mm
11:42 -18.5 °C -20.3 °C 34591.4 hPa ENE 10.3 km/h 18.2 km/h 78 % 0 mm
11:52 -18.3 °C -20.2 °C 34591.4 hPa ENE 2.6 km/h 23.3 km/h 77 % 0 mm
11:57 -18.2 °C -20.1 °C 34577.8 hPa East 7.7 km/h 23.3 km/h 77 % 0 mm
12:07 -18.2 °C -20.3 °C 34577.8 hPa SE 2.6 km/h 18.2 km/h 75 % 0 mm
12:12 -17.9 °C -20 °C 34577.8 hPa East 7.7 km/h 18.2 km/h 76 % 0 mm
12:17 -17.8 °C -19.9 °C 34577.8 hPa East 10.3 km/h 15.6 km/h 76 % 0 mm
12:22 -17.7 °C -19.8 °C 34567.7 hPa SSE 2.6 km/h 15.6 km/h 75 % 0 mm
12:32 -17.5 °C -19.8 °C 34567.7 hPa SE 2.6 km/h 15.6 km/h 74 % 0 mm
12:37 -17.3 °C -19.7 °C 34567.7 hPa ENE 10.3 km/h 15.6 km/h 73 % 0 mm
12:42 -17.4 °C -19.9 °C 34554.1 hPa East 10.3 km/h 10.3 km/h 72 % 0 mm
12:47 -17.4 °C -19.9 °C 34554.1 hPa East 7.7 km/h 10.3 km/h 72 % 0 mm
12:57 -17.2 °C -19.8 °C 34554.1 hPa ENE 15.6 km/h 15.6 km/h 71 % 0 mm
13:02 -17.2 °C -19.8 °C 34554.1 hPa East 12.9 km/h 18.2 km/h 71 % 0 mm
13:07 -17.1 °C -19.7 °C 34554.1 hPa ESE 7.7 km/h 18.2 km/h 71 % 0 mm
13:12 -17.1 °C -19.7 °C 34554.1 hPa ESE 7.7 km/h 18.2 km/h 71 % 0 mm
13:17 -16.8 °C -19.6 °C 34554.1 hPa SE 10.3 km/h 18.2 km/h 70 % 0 mm
13:22 -16.8 °C -19.4 °C 34554.1 hPa SE 15.6 km/h 18.2 km/h 71 % 0 mm
13:27 -16.8 °C -19.5 °C 34554.1 hPa SSE 10.3 km/h 20.8 km/h 70 % 0 mm
13:32 -16.6 °C -19.4 °C 34554.1 hPa East 7.7 km/h 20.8 km/h 69 % 0 mm
13:37 -16.4 °C -19.5 °C 34544 hPa SE 18.2 km/h 20.8 km/h 67 % 0 mm
13:42 -16.2 °C -19.3 °C 34544 hPa South 5.1 km/h 31.1 km/h 67 % 0 mm
13:47 -16.1 °C -19.1 °C 34533.8 hPa SSE 12.9 km/h 31.1 km/h 67 % 0 mm
13:52 -16.1 °C -19.4 °C 34533.8 hPa SE 5.1 km/h 31.1 km/h 64 % 0 mm
13:57 -16.1 °C -19.4 °C 34533.8 hPa ESE 10.3 km/h 23.3 km/h 65 % 0 mm
14:02 -16.1 °C -19.2 °C 34533.8 hPa SE 10.3 km/h 23.3 km/h 66 % 0 mm
14:07 -16.1 °C -19.3 °C 34533.8 hPa ESE 10.3 km/h 20.8 km/h 65 % 0 mm
14:12 -15.9 °C -19.2 °C 34533.8 hPa East 10.3 km/h 20.8 km/h 65 % 0 mm
14:17 -15.8 °C -19.3 °C 34533.8 hPa ENE 7.7 km/h 20.8 km/h 63 % 0 mm
14:22 -15.6 °C -19.3 °C 34520.3 hPa East 12.9 km/h 20.8 km/h 62 % 0 mm
14:27 -15.6 °C -19.4 °C 34510.1 hPa ENE 20.8 km/h 20.8 km/h 61 % 0 mm
14:32 -15.6 °C -19.3 °C 34520.3 hPa East 20.8 km/h 28.5 km/h 61 % 0 mm
14:37 -15.5 °C -19.3 °C 34496.6 hPa East 12.9 km/h 28.5 km/h 61 % 0 mm
14:42 -15.4 °C -19.3 °C 34496.6 hPa East 10.3 km/h 28.5 km/h 61 % 0 mm
14:47 -15.4 °C -19.2 °C 34496.6 hPa East 7.7 km/h 25.9 km/h 61 % 0 mm
14:52 -15.2 °C -19.1 °C 34510.1 hPa SE 5.1 km/h 25.9 km/h 61 % 0 mm
14:57 -15.2 °C -19.2 °C 34510.1 hPa ESE 5.1 km/h 25.9 km/h 60 % 0 mm
15:02 -15.2 °C -19.2 °C 34496.6 hPa East 5.1 km/h 23.3 km/h 60 % 0 mm
15:07 -15.1 °C -19.1 °C 34496.6 hPa ESE 7.7 km/h 23.3 km/h 60 % 0 mm
15:12 -15.1 °C -19.1 °C 34496.6 hPa East 12.9 km/h 23.3 km/h 59 % 0 mm
15:17 -14.9 °C -19.2 °C 34496.6 hPa ENE 18.2 km/h 18.2 km/h 58 % 0 mm
15:22 -14.9 °C -19.2 °C 34496.6 hPa ENE 10.3 km/h 23.3 km/h 57 % 0 mm
15:27 -14.9 °C -19.2 °C 34486.4 hPa ESE 2.6 km/h 23.3 km/h 57 % 0 mm
15:32 -14.8 °C -19.1 °C 34486.4 hPa East 7.7 km/h 23.3 km/h 58 % 0 mm
15:37 -14.7 °C -18.9 °C 34496.6 hPa East 12.9 km/h 23.3 km/h 58 % 0 mm
15:42 -14.8 °C -19.1 °C 34496.6 hPa ESE 2.6 km/h 20.8 km/h 57 % 0 mm
15:47 -14.8 °C -19.1 °C 34486.4 hPa East 5.1 km/h 20.8 km/h 57 % 0 mm
15:52 -14.7 °C -18.9 °C 34486.4 hPa East 7.7 km/h 20.8 km/h 58 % 0 mm
15:57 -14.7 °C -19.1 °C 34486.4 hPa ENE 7.7 km/h 20.8 km/h 57 % 0 mm
16:02 -14.8 °C -19 °C 34486.4 hPa ENE 7.7 km/h 15.6 km/h 58 % 0 mm
16:12 -14.8 °C -19 °C 34476.3 hPa ENE 15.6 km/h 18.2 km/h 58 % 0 mm
16:17 -14.8 °C -19 °C 34476.3 hPa East 7.7 km/h 25.9 km/h 58 % 0 mm
16:22 -14.8 °C -19 °C 34476.3 hPa East 2.6 km/h 25.9 km/h 58 % 0 mm
16:27 -14.8 °C -19.2 °C 34476.3 hPa ENE 2.6 km/h 25.9 km/h 57 % 0 mm
16:32 -14.8 °C -19.1 °C 34476.3 hPa East 5.1 km/h 23.3 km/h 58 % 0 mm
16:37 -14.9 °C -19.1 °C 34476.3 hPa ENE 2.6 km/h 12.9 km/h 59 % 0 mm
16:42 -15.1 °C -19 °C 34476.3 hPa ENE 5.1 km/h 12.9 km/h 60 % 0 mm
16:47 -15.1 °C -18.9 °C 34462.7 hPa ENE 5.1 km/h 10.3 km/h 61 % 0 mm
16:52 -15.2 °C -19 °C 34462.7 hPa Calm   10.3 km/h 61 % 0 mm
16:57 -15.2 °C -19 °C 34462.7 hPa East 2.6 km/h 10.3 km/h 61 % 0 mm
17:02 -15.2 °C -19 °C 34462.7 hPa East 2.6 km/h 10.3 km/h 61 % 0 mm
17:07 -15.3 °C -19.1 °C 34462.7 hPa Calm   5.1 km/h 61 % 0 mm
17:12 -15.3 °C -19 °C 34462.7 hPa Calm   5.1 km/h 62 % 0 mm
17:17 -15.4 °C -19.1 °C 34462.7 hPa East 2.6 km/h 5.1 km/h 62 % 0 mm
17:22 -15.4 °C -19.1 °C 34452.6 hPa Calm   2.6 km/h 62 % 0 mm
17:27 -15.4 °C -19.1 °C 34462.7 hPa Calm   2.6 km/h 62 % 0 mm
17:32 -15.5 °C -19.2 °C 34462.7 hPa Calm   2.6 km/h 62 % 0 mm
17:37 -15.7 °C -19.2 °C 34462.7 hPa Calm   2.6 km/h 63 % 0 mm
17:42 -15.7 °C -19.3 °C 34452.6 hPa Calm   2.6 km/h 63 % 0 mm
17:47 -15.9 °C -19.3 °C 34452.6 hPa Calm   2.6 km/h 64 % 0 mm
17:52 -15.9 °C -19.3 °C 34452.6 hPa Calm   2.6 km/h 64 % 0 mm
17:57 -15.9 °C -19.3 °C 34452.6 hPa NE 7.7 km/h   65 % 0 mm
18:02 -15.9 °C -19.4 °C 34442.4 hPa NNE 2.6 km/h 5.1 km/h 64 % 0 mm
18:12 -16 °C -19.4 °C 34442.4 hPa NE 2.6 km/h 7.7 km/h 64 % 0 mm
18:17 -16.1 °C -19.3 °C 34442.4 hPa NE 2.6 km/h 7.7 km/h 65 % 0 mm
18:22 -16.1 °C -19.3 °C 34442.4 hPa NE 2.6 km/h 7.7 km/h 65 % 0 mm
18:32 -16.4 °C -19.4 °C 34442.4 hPa East 2.6 km/h 5.1 km/h 67 % 0 mm
18:37 -16.6 °C -19.4 °C 34442.4 hPa Calm   5.1 km/h 69 % 0 mm
18:42 -16.6 °C -19.3 °C 34442.4 hPa Calm   7.7 km/h 70 % 0 mm
18:47 -16.6 °C -19.4 °C 34452.6 hPa Calm   7.7 km/h 69 % 0 mm
18:52 -16.7 °C -19.6 °C 34452.6 hPa SSE 2.6 km/h 5.1 km/h 69 % 0 mm
19:02 -17.2 °C -19.7 °C 34452.6 hPa Calm   5.1 km/h 72 % 0 mm
19:07 -17.1 °C -19.6 °C 34452.6 hPa Calm   5.1 km/h 72 % 0 mm
19:12 -17.2 °C -19.7 °C 34452.6 hPa Calm   5.1 km/h 72 % 0 mm
19:17 -17.1 °C -19.6 °C 34452.6 hPa Calm   2.6 km/h 72 % 0 mm
19:22 -17.1 °C -19.7 °C 34452.6 hPa Calm   2.6 km/h 71 % 0 mm
19:32 -17 °C -19.7 °C 34452.6 hPa SE 7.7 km/h 7.7 km/h 70 % 0 mm
19:37 -17 °C -19.6 °C 34452.6 hPa ESE 2.6 km/h 12.9 km/h 71 % 0 mm
19:42 -16.9 °C -19.5 °C 34452.6 hPa ESE 7.7 km/h 15.6 km/h 71 % 0 mm
19:47 -16.7 °C -19.4 °C 34452.6 hPa SSE 5.1 km/h 25.9 km/h 70 % 0 mm
19:52 -16.8 °C -19.4 °C 34452.6 hPa SE 7.7 km/h 25.9 km/h 71 % 0 mm
19:57 -16.9 °C -19.4 °C 34452.6 hPa East 5.1 km/h 25.9 km/h 72 % 0 mm
20:02 -16.8 °C -19.3 °C 34442.4 hPa East 7.7 km/h 25.9 km/h 72 % 0 mm
20:07 -16.8 °C -19.3 °C 34442.4 hPa East 15.6 km/h 18.2 km/h 72 % 0 mm
20:12 -16.8 °C -19.3 °C 34442.4 hPa ESE 2.6 km/h 18.2 km/h 72 % 0 mm
20:17 -16.8 °C -19.3 °C 34442.4 hPa ENE 25.9 km/h 25.9 km/h 72 % 0 mm
20:22 -16.8 °C -19.3 °C 34418.7 hPa East 25.9 km/h 28.5 km/h 72 % 0 mm
20:27 -16.8 °C -19.3 °C 34428.8 hPa ESE 25.9 km/h 36.2 km/h 72 % 0 mm
20:32 -16.7 °C -19.1 °C 34418.7 hPa East 15.6 km/h 36.2 km/h 73 % 0 mm
20:37 -16.6 °C -19 °C 34418.7 hPa East 18.2 km/h 36.2 km/h 73 % 0 mm
20:42 -16.6 °C -18.9 °C 34418.7 hPa East 15.6 km/h 31.1 km/h 74 % 0 mm
20:47 -16.6 °C -18.9 °C 34418.7 hPa SE 5.1 km/h 31.1 km/h 74 % 0 mm
20:52 -16.5 °C -18.8 °C 34418.7 hPa SE 5.1 km/h 31.1 km/h 74 % 0 mm
20:57 -16.5 °C -18.7 °C 34418.7 hPa East 5.1 km/h 28.5 km/h 75 % 0 mm
21:02 -16.5 °C -18.5 °C 34428.8 hPa SE 10.3 km/h 28.5 km/h 77 % 0 mm
21:07 -16.3 °C -18.2 °C 34418.7 hPa ESE 25.9 km/h 36.2 km/h 78 % 0 mm
21:12 -16 °C -17.9 °C 34418.7 hPa SE 25.9 km/h 41.4 km/h 78 % 0 mm
21:17 -15.9 °C -17.8 °C 34428.8 hPa SE 25.9 km/h 41.4 km/h 78 % 0 mm
21:22 -15.8 °C -17.6 °C 34418.7 hPa SE 33.6 km/h 41.4 km/h 80 % 0 mm
21:27 -15.8 °C -17.3 °C 34418.7 hPa SE 28.5 km/h 46.7 km/h 82 % 0 mm
21:32 -15.7 °C -17.2 °C 34418.7 hPa SE 23.3 km/h 46.7 km/h 83 % 0 mm
21:37 -15.7 °C -17.2 °C 34405.1 hPa SE 18.2 km/h 49.2 km/h 83 % 0 mm
21:42 -15.9 °C -17.2 °C 34405.1 hPa SE 23.3 km/h 49.2 km/h 85 % 0 mm
21:47 -15.9 °C -17.1 °C 34395 hPa SE 10.3 km/h 49.2 km/h 86 % 7.62 mm
21:52 -16.2 °C -17.3 °C 34395 hPa ESE 7.7 km/h 49.2 km/h 86 % 7.62 mm
21:57 -16.3 °C -17.3 °C 34395 hPa SSE 7.7 km/h 41.4 km/h 87 % 7.62 mm
22:02 -16.2 °C -17.2 °C 34384.8 hPa ESE 23.3 km/h 41.4 km/h 88 % 7.62 mm
22:12 -16.1 °C -17.2 °C 34384.8 hPa ESE 10.3 km/h 44.1 km/h 87 % 7.62 mm
22:17 -16.2 °C -17.3 °C 34384.8 hPa SE 10.3 km/h 44.1 km/h 87 % 7.62 mm
22:22 -16.3 °C -17.3 °C 34384.8 hPa SE 10.3 km/h 44.1 km/h 88 % 7.62 mm
22:27 -16.3 °C -17.3 °C 34384.8 hPa SSE 7.7 km/h 25.9 km/h 88 % 7.62 mm
22:32 -16.3 °C -17.3 °C 34384.8 hPa SSE 12.9 km/h 25.9 km/h 88 % 7.62 mm
22:37 -16.3 °C -17.2 °C 34384.8 hPa East 15.6 km/h 20.8 km/h 89 % 7.62 mm
22:42 -16.3 °C -17.2 °C 34384.8 hPa SSE 7.7 km/h 20.8 km/h 89 % 7.62 mm
22:47 -16.2 °C -17.1 °C 34384.8 hPa SE 7.7 km/h 23.3 km/h 89 % 0 mm
22:57 -16.1 °C -16.9 °C 34384.8 hPa SE 10.3 km/h 23.3 km/h 89 % 0 mm
23:07 -16.2 °C -17.2 °C 34384.8 hPa SSE 10.3 km/h 28.5 km/h 88 % 0 mm
23:12 -16.2 °C -17.3 °C 34384.8 hPa ESE 12.9 km/h 28.5 km/h 87 % 0 mm
23:17 -16.2 °C -17.3 °C 34384.8 hPa ESE 5.1 km/h 31.1 km/h 87 % 0 mm
23:32 -16.4 °C -17.4 °C 34384.8 hPa SE 5.1 km/h 28.5 km/h 87 % 0 mm
23:37 -16.4 °C -17.5 °C 34384.8 hPa ESE 10.3 km/h 18.2 km/h 87 % 0 mm
23:42 -16.3 °C -17.5 °C 34384.8 hPa SE 7.7 km/h 18.2 km/h 86 % 0 mm
23:52 -16.4 °C -17.7 °C 34384.8 hPa ESE 10.3 km/h 44.1 km/h 85 % 0 mm
Meteo18
Compliments of Weather Underground - 4 mb

Script developed by  Jim McMurry - jmcmurry@mwt.net Adapted for the template by  Wim van der Kuil - Leuven-Template.eu

You find our weather info also at:

European Weather Network

Weather Underground

Equipment we use:

Weather-station
Davis Vue

Weather-program
Meteobridge

Weather-server
Raspberry PI 2 B+

Provider
1 and 1

Davis Vue

Meteobridge

Raspberry PI 2 B+

1 and 1